Date,TemperatureHighF,TemperatureAvgF,TemperatureLowF,DewpointHighF,DewpointAvgF,DewpointLowF,HumidityHigh,HumidityAvg,HumidityLow,PressureMaxIn,PressureMinIn,WindSpeedMaxMPH,WindSpeedAvgMPH,GustSpeedMaxMPH,PrecipitationSumIn
2013-1-1,38.8,5.9,-6.3,10.8,-6.1,-17.9,69,57,43,30.48,30.22,14,4,14,0.00
2013-1-2,20.8,16.6,13.6,14.7,9.4,7.0,78,73,69,30.27,30.15,11,4,11,0.00
2013-1-3,20.8,14.4,10.4,14.5,3.6,-3.1,76,62,44,30.46,30.27,17,6,17,0.00
2013-1-4,33.6,22.2,13.8,14.2,9.6,5.9,70,59,43,30.32,30.21,17,5,17,0.00
2013-1-5,27.9,18.7,12.2,10.4,7.5,4.6,71,62,45,30.29,30.05,13,4,13,0.00
2013-1-6,27.0,17.8,11.1,9.0,5.1,0.5,70,58,39,30.42,30.21,13,5,13,0.00
2013-1-7,38.7,29.9,16.2,23.4,18.3,6.8,71,62,51,30.22,30.08,21,7,21,0.00
2013-1-8,35.1,28.0,18.9,25.7,19.8,12.0,79,71,60,30.19,29.96,18,6,18,0.00
2013-1-9,36.1,31.6,25.9,24.3,18.8,15.8,75,59,45,30.54,30.10,24,8,24,0.00
2013-1-10,42.1,33.9,26.6,31.3,22.1,15.8,88,63,42,30.50,29.94,21,8,21,0.30
2013-1-11,41.9,37.1,34.5,40.8,35.0,31.3,96,92,88,29.94,29.57,17,6,19,0.33
2013-1-12,39.4,15.0,3.7,37.6,2.6,-9.9,94,58,45,30.28,29.59,24,6,24,0.01
2013-1-13,38.8,4.4,0.9,-5.8,-8.6,-12.3,60,54,48,30.43,30.24,12,5,12,0.05
2013-1-14,15.1,8.1,3.4,-2.4,-5.4,-7.8,64,54,41,30.60,30.43,13,4,13,0.07
2013-1-15,31.1,20.5,8.8,13.6,6.8,-2.9,71,56,40,30.47,30.03,22,7,22,0.00
2013-1-16,36.9,26.2,12.9,29.8,13.6,-10.8,85,61,29,30.43,29.85,24,8,24,0.00
2013-1-17,21.9,12.9,5.9,4.1,-6.1,-16.4,58,42,30,30.59,30.43,15,4,15,0.00
2013-1-18,42.6,29.9,16.3,28.4,19.5,3.9,78,65,54,30.48,29.92,21,7,21,0.00
2013-1-19,39.7,23.6,1.8,28.8,12.3,-14.6,84,63,39,30.43,29.88,35,8,35,0.00
2013-1-20,10.0,2.0,-3.1,-7.1,-16.0,-21.5,55,42,30,30.60,30.41,16,7,18,0.00
2013-1-21,-3.1,-6.9,-11.7,-21.3,-25.8,-31.2,46,38,30,30.54,30.46,17,7,18,0.00
2013-1-22,3.9,-4.2,-12.6,-11.7,-23.3,-29.7,47,38,30,30.59,30.43,14,4,14,0.00
2013-1-23,16.7,6.4,-5.6,2.1,-12.4,-29.7,64,42,24,30.80,30.34,28,8,28,0.00
2013-1-24,12.7,1.2,-7.6,-5.6,-19.0,-29.2,43,37,30,30.86,30.35,18,6,18,0.00
2013-1-25,65.1,13.4,4.3,37.6,-3.5,-11.9,60,46,36,30.51,30.14,22,8,23,0.24
2013-1-26,23.4,13.0,0.0,6.4,-3.8,-14.1,59,47,38,30.53,30.31,19,6,19,0.00
2013-1-27,32.9,29.3,22.8,27.7,18.8,6.4,87,67,48,30.31,30.00,16,6,16,0.00
2013-1-28,34.9,32.0,30.6,31.6,28.8,27.1,90,88,84,30.10,29.83,14,4,14,0.17
2013-1-29,36.0,32.2,27.5,30.0,26.6,17.1,91,80,64,29.95,29.72,22,6,22,0.02
2013-1-30,65.1,17.2,7.9,17.2,5.0,-6.5,68,58,50,29.96,29.84,23,10,27,0.05
2013-1-31,7.9,1.2,-8.7,-5.4,-14.4,-27.0,58,47,39,30.47,29.96,20,8,20,0.00
2013-2-1,4.1,-3.8,-12.6,-6.0,-20.7,-29.2,62,44,28,30.51,30.24,14,4,14,0.00
2013-2-2,13.8,6.1,0.1,-1.3,-7.4,-13.2,63,53,40,30.38,30.17,10,4,62,0.00
2013-2-3,15.1,10.3,3.7,2.3,-2.7,-8.1,67,55,41,30.28,30.17,14,4,14,0.00
2013-2-4,16.9,11.0,4.3,7.5,-4.4,-10.7,72,50,35,30.27,29.94,14,4,14,0.00
2013-2-5,30.9,22.4,10.0,20.8,12.0,-0.8,80,65,47,30.28,29.85,17,5,17,0.01
2013-2-6,25.3,16.1,5.4,15.1,6.6,-4.5,73,66,61,30.31,30.13,15,4,15,0.00
2013-2-7,27.0,25.2,22.1,19.4,17.3,14.7,81,72,62,30.45,30.17,17,6,20,0.00
2013-2-8,30.0,23.6,19.2,20.5,11.2,6.6,71,59,40,30.57,30.41,15,6,15,0.00
2013-2-9,32.2,28.5,25.0,25.7,21.3,16.3,83,74,69,30.41,30.13,23,10,23,0.00
2013-2-10,33.4,30.5,27.9,30.6,26.2,21.4,90,84,75,30.13,29.48,19,4,19,0.00
2013-2-11,29.5,24.8,17.1,27.0,15.9,6.6,90,69,57,30.24,29.54,0,0,0,0.00
2013-2-12,38.3,25.0,14.7,22.1,13.2,4.6,72,61,44,30.24,30.00,17,3,17,0.14
2013-2-13,40.6,29.0,18.0,28.4,19.7,9.5,85,68,53,30.01,29.76,13,4,13,0.02
2013-2-14,34.9,26.6,14.9,28.8,15.2,-6.0,89,65,25,30.38,29.78,19,3,19,0.09
2013-2-15,23.0,11.8,5.5,-1.7,-5.8,-8.5,57,45,31,30.50,29.87,17,6,17,0.00
2013-2-16,22.8,10.1,0.9,2.7,-4.5,-12.5,62,51,38,30.45,30.30,8,3,8,0.00
2013-2-17,32.9,21.9,8.2,18.9,8.8,-4.9,64,57,47,30.31,29.83,62,10,62,0.00
2013-2-18,36.9,23.6,7.3,27.5,12.9,-5.1,78,63,51,30.55,29.72,20,7,20,0.00
2013-2-19,9.5,4.9,0.0,-4.7,-12.7,-18.4,57,44,32,30.55,30.01,23,9,23,0.00
2013-2-20,18.5,7.3,-4.7,-2.9,-10.4,-19.8,53,44,31,30.65,30.55,9,3,9,0.00
2013-2-21,23.9,16.2,6.6,6.4,-0.3,-7.8,56,48,40,30.64,30.28,15,4,15,0.00
2013-2-22,28.2,23.2,19.0,18.9,14.8,6.3,80,70,51,30.29,30.05,13,4,13,0.01
2013-2-23,32.5,24.1,19.4,20.3,15.3,11.3,76,69,55,30.17,30.04,14,5,14,0.01
2013-2-24,37.2,24.2,10.9,18.7,11.8,3.4,71,60,43,30.30,30.15,11,2,11,0.01
2013-2-25,41.2,29.6,20.5,23.0,17.2,13.5,75,60,45,30.30,30.22,7,1,7,0.00
2013-2-26,37.8,27.4,17.1,25.2,17.7,9.1,79,67,54,30.26,30.08,23,5,23,0.00
2013-2-27,41.2,32.3,27.9,23.4,21.0,16.5,72,63,47,30.23,30.06,23,9,23,0.00
2013-2-28,30.4,28.3,23.7,18.7,15.7,9.7,65,59,52,30.42,30.22,15,6,15,0.00
2013-3-1,32.4,24.9,17.6,14.5,9.7,4.8,59,52,44,30.55,30.42,15,6,15,0.00
2013-3-2,54.0,22.1,8.6,36.7,3.4,-1.5,69,46,25,30.54,30.12,12,3,12,0.00
2013-3-3,33.3,26.1,17.8,8.6,2.8,-1.3,53,37,26,30.37,30.18,23,7,23,0.00
2013-3-4,27.5,24.9,22.6,18.5,12.0,1.9,79,59,33,30.24,30.14,21,8,21,0.00
2013-3-5,30.7,25.4,22.1,21.9,18.4,13.5,81,74,65,30.50,30.17,15,5,15,0.00
2013-3-6,32.9,22.9,14.4,16.2,11.7,5.5,71,62,49,30.62,30.49,12,4,12,0.04
2013-3-7,33.4,22.3,9.0,14.4,8.8,-0.4,71,57,43,30.58,30.47,17,5,17,0.01
2013-3-8,40.5,30.4,18.5,27.1,19.3,9.9,74,63,51,30.52,30.27,17,7,17,0.00
2013-3-9,36.9,35.4,32.9,33.1,30.9,24.3,88,84,65,30.29,29.90,21,6,21,0.45
2013-3-10,34.9,33.0,29.7,31.6,26.1,21.7,89,76,70,30.15,29.98,24,10,24,0.08
2013-3-11,30.4,27.5,22.6,21.7,17.7,12.7,72,66,58,30.07,29.95,17,7,17,0.00
2013-3-12,30.9,25.0,20.8,15.6,9.9,2.1,68,53,33,30.39,30.03,23,7,23,0.00
2013-3-13,55.8,23.6,13.5,12.7,7.0,4.1,68,50,28,30.57,30.25,13,5,13,0.00
2013-3-14,44.1,32.0,23.2,26.2,19.9,11.7,80,61,48,30.45,23.69,43,5,43,0.01
2013-3-15,34.3,31.1,23.7,28.4,24.5,18.1,84,76,66,30.22,30.03,15,3,15,0.13
2013-3-16,27.7,21.4,13.3,18.0,7.1,-4.0,79,55,37,30.44,30.10,18,7,18,0.00
2013-3-17,28.0,18.7,7.3,13.1,-0.5,-10.5,56,42,34,30.47,30.08,21,9,21,0.00
2013-3-18,28.4,21.7,11.5,24.8,10.6,-1.5,86,63,48,30.09,29.81,26,12,26,0.01
2013-3-19,29.1,14.1,6.3,-1.1,-5.7,-13.9,55,41,27,30.39,30.02,19,9,23,0.00
2013-3-20,28.8,13.2,4.3,-3.6,-8.4,-13.5,47,37,28,30.41,30.21,24,8,49,0.00
2013-3-21,29.5,17.8,4.8,4.6,-2.1,-9.4,54,41,29,30.33,30.22,11,3,11,0.00
2013-3-22,39.9,24.9,9.1,11.7,5.1,-3.3,63,44,27,30.30,30.22,10,2,11,0.00
2013-3-23,40.5,29.7,17.4,14.5,11.0,5.7,64,46,30,30.35,30.27,11,2,11,0.00
2013-3-24,33.3,29.8,27.1,21.2,17.8,12.9,72,61,50,30.30,30.18,17,5,17,0.00
2013-3-25,39.0,31.1,23.0,17.4,13.5,9.5,61,48,36,30.41,30.24,19,7,19,0.00
2013-3-26,40.5,32.0,25.3,19.6,15.6,12.7,62,51,38,30.50,30.41,11,4,12,0.00
2013-3-27,45.3,33.7,20.3,19.9,14.3,10.9,71,47,25,30.54,30.48,9,2,10,0.00
2013-3-28,46.4,34.7,21.0,24.1,17.9,12.6,74,52,29,30.54,30.46,15,3,62,0.00
2013-3-29,51.3,39.3,29.5,33.4,26.6,19.2,70,60,44,30.49,30.27,15,5,15,0.00
2013-3-30,55.2,44.6,36.0,41.7,35.1,27.5,87,70,51,30.27,30.04,16,6,16,0.25
2013-3-31,39.6,33.9,23.7,28.9,19.3,3.4,84,57,24,30.29,30.00,26,9,26,0.00
2013-4-1,34.9,25.5,17.2,11.8,6.9,3.4,56,46,29,30.46,30.29,19,7,19,0.00
2013-4-2,37.2,27.6,18.0,11.1,7.8,1.9,67,45,23,30.56,30.45,16,4,16,0.00
2013-4-3,46.9,34.8,18.9,28.8,16.6,7.2,67,48,29,30.60,30.25,26,8,26,0.00
2013-4-4,51.1,43.5,34.0,31.1,24.4,18.1,70,48,30,30.38,30.19,26,9,28,0.00
2013-4-5,43.0,34.4,27.3,29.8,20.0,11.1,84,58,30,30.45,30.10,23,7,23,0.07
2013-4-6,53.8,41.8,35.4,40.8,32.2,25.3,87,69,50,30.10,29.70,24,9,24,0.12
2013-4-7,48.0,40.8,34.9,36.5,31.2,18.1,83,69,54,30.32,29.95,14,5,15,0.08
2013-4-8,45.3,42.1,39.7,39.6,38.1,30.4,93,86,78,30.25,29.88,15,4,15,0.72
2013-4-9,42.6,38.0,31.8,34.3,29.0,22.8,83,71,52,30.37,30.17,22,9,22,0.25
2013-4-10,39.2,34.8,29.5,26.8,22.7,16.7,88,62,43,30.40,30.10,19,7,19,0.11
2013-4-11,35.6,32.9,30.2,30.2,26.8,19.6,87,79,52,30.12,29.89,62,6,62,0.24
2013-4-12,36.7,31.3,27.0,27.1,24.3,21.9,87,76,56,30.05,29.88,12,4,12,0.15
2013-4-13,36.5,32.5,28.6,24.6,21.9,18.5,83,66,52,30.17,30.03,12,4,12,0.01
2013-4-14,36.3,32.3,28.9,32.5,25.0,18.7,86,74,57,30.16,29.70,25,7,25,0.15
2013-4-15,39.6,35.9,32.2,32.4,25.8,21.6,86,66,60,30.18,29.73,29,13,29,0.05
2013-4-16,45.3,38.1,32.7,26.1,23.9,22.1,70,57,42,30.51,30.17,17,5,17,0.00
2013-4-17,41.0,37.2,33.6,32.7,26.8,21.7,86,67,55,30.52,30.09,18,6,18,0.13
2013-4-18,34.2,32.0,30.6,30.2,28.4,26.8,90,86,80,30.14,29.71,21,4,21,0.22
2013-4-19,35.8,31.4,28.4,28.6,25.7,17.4,90,80,61,30.19,29.69,24,4,32,0.17
2013-4-20,44.6,33.4,20.3,17.1,9.9,5.5,65,40,22,30.49,30.19,13,3,13,0.00
2013-4-21,50.0,40.7,32.9,44.8,32.8,12.0,89,74,39,30.51,30.21,28,9,28,0.17
2013-4-22,44.1,36.6,31.8,35.6,29.7,25.9,89,77,51,30.41,30.31,17,5,17,0.11
2013-4-23,42.4,35.1,27.7,34.7,24.1,13.8,90,67,38,30.36,30.26,16,3,16,0.13
2013-4-24,51.4,37.5,26.8,31.8,23.5,16.2,80,60,27,30.28,30.09,29,8,29,0.01
2013-4-25,51.6,41.5,32.2,29.7,25.3,19.8,79,55,29,30.41,30.18,19,7,19,0.01
2013-4-26,72.0,58.4,44.1,43.7,35.7,26.4,64,44,22,30.34,30.17,24,7,24,0.00
2013-4-27,74.5,61.3,41.5,47.1,36.5,27.1,73,43,19,30.35,30.09,18,5,18,0.00
2013-4-28,81.5,65.4,52.7,54.1,47.0,43.7,91,55,28,30.10,29.84,26,10,26,0.06
2013-4-29,74.8,63.0,50.2,58.1,46.3,33.6,95,58,29,30.03,29.76,17,5,17,0.07
2013-4-30,70.7,65.1,56.8,59.4,45.4,23.5,82,52,20,30.18,29.62,23,8,23,0.00
2013-5-1,56.8,41.1,33.6,39.6,34.2,28.2,97,79,44,30.68,30.18,18,6,18,0.33
2013-5-2,46.2,39.8,35.4,30.6,26.7,24.1,77,60,45,30.74,30.61,23,9,23,0.01
2013-5-3,37.4,33.8,30.9,33.3,28.6,22.5,99,82,58,30.62,30.35,19,8,21,0.07
2013-5-4,48.0,39.0,32.4,41.5,36.2,30.4,99,90,76,30.38,30.31,16,7,16,0.08
2013-5-5,65.7,50.2,37.9,47.8,41.7,36.0,95,74,52,30.38,30.26,10,4,10,0.00
2013-5-6,74.7,60.8,44.2,48.9,45.7,42.6,95,62,36,30.31,30.20,11,2,11,0.00
2013-5-7,78.6,66.5,50.9,53.2,46.5,39.6,87,53,26,30.27,30.15,15,3,15,0.00
2013-5-8,77.2,65.7,57.2,57.7,51.1,44.1,89,62,31,30.22,30.14,14,3,52,0.07
2013-5-9,59.4,53.4,43.5,56.3,47.6,29.5,94,81,55,30.32,30.16,21,7,23,0.13
2013-5-10,68.4,52.3,36.0,41.5,26.4,18.7,72,42,15,30.33,30.07,15,5,15,0.00
2013-5-11,56.5,47.2,41.5,45.0,25.5,13.6,69,45,23,30.38,30.07,33,12,33,0.02
2013-5-12,58.8,46.7,33.8,23.7,19.5,12.4,59,36,19,30.43,30.27,19,5,19,0.00
2013-5-13,71.6,56.2,36.3,48.6,33.1,21.7,72,44,22,30.31,29.85,27,7,27,0.01
2013-5-14,98.8,75.6,52.7,55.2,45.5,26.4,80,40,12,29.89,29.65,26,6,26,0.00
2013-5-15,79.7,67.9,55.6,49.6,45.8,39.9,67,47,26,30.13,29.88,23,6,52,0.00
2013-5-16,83.3,71.3,54.0,50.2,41.4,25.7,76,38,18,30.13,30.04,14,4,14,0.00
2013-5-17,69.3,59.1,55.8,55.9,51.0,27.5,97,78,21,30.21,30.09,18,6,18,0.30
2013-5-18,81.3,65.9,55.0,66.2,59.7,54.1,99,83,53,30.22,29.99,22,6,22,0.77
2013-5-19,82.0,69.3,62.8,68.5,64.3,61.9,99,86,56,30.03,29.76,34,6,34,1.07
2013-5-20,72.1,66.2,59.4,64.4,60.3,56.1,99,82,58,29.79,29.72,22,7,22,0.41
2013-5-21,59.7,56.1,47.3,59.2,55.1,47.1,99,97,89,29.92,29.73,12,3,12,0.45
2013-5-22,53.1,48.8,44.6,50.4,47.2,43.9,99,94,73,30.20,29.91,18,6,18,0.17
2013-5-23,64.9,54.1,43.9,45.0,33.7,23.0,86,51,21,30.55,30.20,16,5,16,0.02
2013-5-24,68.9,55.9,38.8,53.4,38.8,29.1,90,55,32,30.60,30.38,20,5,20,0.19
2013-5-25,61.7,56.8,53.1,52.5,48.3,43.5,98,74,57,30.47,30.42,23,8,23,0.22
2013-5-26,58.8,56.1,53.6,49.1,43.1,37.0,71,62,49,30.44,30.25,29,8,29,0.00
2013-5-27,61.2,56.9,53.8,55.9,51.8,47.8,99,83,67,30.27,30.04,16,4,16,0.05
2013-5-28,59.7,56.3,52.9,57.0,54.8,52.2,99,95,90,30.05,29.93,10,2,10,0.05
2013-5-29,76.1,65.4,54.1,70.9,61.9,53.1,99,89,74,30.04,29.84,52,5,52,0.79
2013-5-30,77.2,69.5,63.9,65.8,63.4,60.6,99,82,58,29.88,29.73,30,8,30,0.86
2013-5-31,79.0,68.5,61.3,63.0,57.4,50.5,98,71,41,29.77,29.71,27,8,27,0.30
2013-6-1,72.5,60.9,52.0,61.0,53.0,43.5,92,76,52,30.15,29.75,19,5,19,0.01
2013-6-2,68.4,57.1,49.5,44.1,40.7,37.0,74,56,34,30.29,30.15,17,5,17,0.00
2013-6-3,71.8,60.6,45.9,49.8,44.0,37.0,95,58,31,30.28,30.14,15,2,15,0.00
2013-6-4,63.5,59.8,54.9,54.5,50.2,45.5,94,71,56,30.30,30.19,21,6,21,0.02
2013-6-5,60.1,56.1,54.3,57.4,54.7,50.9,99,95,83,30.26,30.14,15,3,52,0.30
2013-6-6,56.5,52.8,49.3,53.4,51.4,49.1,99,95,86,30.25,30.17,11,4,12,0.00
2013-6-7,65.1,58.3,52.7,53.8,52.1,50.7,98,81,63,30.26,30.12,8,2,8,0.00
2013-6-8,72.1,63.8,53.8,57.2,53.9,50.9,97,72,48,30.14,30.09,18,3,18,0.00
2013-6-9,68.4,60.6,56.5,63.0,58.1,54.7,99,92,73,30.12,29.98,15,4,15,0.51
2013-6-10,77.7,66.4,58.5,64.6,61.0,57.9,99,84,59,30.07,30.01,8,2,8,0.00
2013-6-11,77.9,67.4,55.9,68.4,63.0,55.6,99,87,68,30.12,30.01,8,2,9,0.00
2013-6-12,74.7,66.8,60.1,67.1,62.0,53.1,99,86,60,30.14,29.94,15,3,15,0.50
2013-6-13,79.3,69.1,57.9,56.1,53.1,49.5,78,58,40,30.30,30.14,12,4,12,0.01
2013-6-14,80.1,70.3,57.0,62.6,57.1,50.0,84,64,49,30.30,30.07,23,7,23,0.04
2013-6-15,76.3,69.1,62.2,69.3,65.1,61.3,97,87,76,30.12,30.05,17,2,17,0.25
2013-6-16,87.6,71.0,55.6,61.5,54.9,43.9,99,64,23,30.14,30.04,25,3,25,0.02
2013-6-17,83.3,71.6,59.0,60.6,56.5,51.6,91,61,35,30.22,30.07,11,3,11,0.01
2013-6-18,77.9,66.5,54.9,59.9,54.8,48.2,80,67,50,30.30,30.22,11,2,11,0.00
2013-6-19,87.1,73.5,59.2,62.6,58.7,54.7,89,62,36,30.28,30.14,13,4,14,0.00
2013-6-20,90.1,81.1,72.3,67.3,62.8,59.7,71,55,38,30.21,30.07,21,7,21,0.00
2013-6-21,82.8,72.8,62.1,69.6,66.0,59.9,99,81,53,30.32,29.94,27,5,27,1.20
2013-6-22,81.7,72.2,65.5,70.5,67.7,64.4,99,87,66,30.20,30.04,17,2,17,1.16
2013-6-23,84.6,75.1,69.3,70.7,67.4,63.0,96,78,51,30.09,29.89,28,8,28,0.34
2013-6-24,84.4,73.4,63.3,73.2,67.1,62.4,99,82,58,30.12,30.00,21,3,21,0.02
2013-6-25,86.9,76.3,64.9,73.8,68.4,63.1,95,78,58,30.04,29.91,17,4,17,0.00
2013-6-26,88.7,79.9,72.7,76.6,70.7,63.7,97,76,48,30.02,29.86,13,4,13,0.04
2013-6-27,88.3,78.8,68.0,67.5,60.6,51.6,92,58,29,30.02,29.98,21,4,21,0.00
2013-6-28,79.5,71.7,65.5,65.3,60.5,55.6,95,69,51,30.02,29.96,60,6,60,0.17
2013-6-29,77.5,69.0,61.7,64.0,57.8,49.3,98,71,40,30.19,29.95,17,5,17,0.59
2013-6-30,82.8,70.2,57.6,56.7,52.4,43.3,86,57,31,30.32,30.19,15,3,16,0.00
2013-7-1,85.5,73.8,59.4,63.0,56.1,51.8,92,58,33,30.39,30.32,11,2,12,0.00
2013-7-2,84.2,73.0,59.5,56.5,53.2,45.3,83,52,29,30.38,30.25,11,2,11,0.00
2013-7-3,86.4,72.8,57.2,62.4,54.0,46.6,94,57,27,30.28,30.15,9,2,11,0.00
2013-7-4,89.8,78.2,66.4,61.3,56.9,52.3,74,50,29,30.18,30.05,18,6,18,0.00
2013-7-5,88.3,80.3,71.2,63.7,60.6,55.9,64,52,40,30.11,30.00,22,9,23,0.00
2013-7-6,90.7,82.2,74.3,66.9,63.2,61.3,67,54,39,30.08,30.00,17,6,17,0.00
2013-7-7,93.2,82.3,72.3,71.4,67.5,63.1,86,62,45,30.09,30.01,15,4,15,0.00
2013-7-8,87.1,75.9,65.8,70.7,67.8,63.7,97,78,51,30.20,30.09,10,3,10,0.00
2013-7-9,86.4,78.1,69.8,73.2,69.7,65.1,97,76,61,30.16,29.96,21,5,21,0.43
2013-7-10,81.0,72.2,62.2,65.7,56.8,50.9,82,60,39,30.26,30.12,15,5,15,0.00
2013-7-11,86.4,74.7,59.5,63.5,57.4,53.6,95,59,34,30.33,30.17,15,4,16,0.00
2013-7-12,90.0,79.6,70.2,62.4,59.5,56.1,67,51,38,30.22,30.10,27,10,27,0.00
2013-7-13,79.9,73.9,66.2,71.2,64.8,57.2,99,75,53,30.28,30.12,21,6,21,2.62
2013-7-14,86.4,77.0,70.2,69.1,64.7,60.6,83,67,46,30.38,30.25,13,4,13,0.00
2013-7-15,89.2,79.5,68.0,70.7,66.5,61.3,92,67,42,30.44,30.35,16,4,16,0.00
2013-7-16,92.8,84.3,76.1,73.4,70.9,67.1,88,66,45,30.41,30.36,15,5,15,0.00
2013-7-17,93.4,84.4,75.0,72.5,70.7,-13.4,88,65,45,30.45,30.30,17,4,17,0.00
2013-7-18,93.6,85.8,77.5,72.5,70.7,67.6,81,62,44,30.31,29.96,24,8,24,0.00
2013-7-19,87.4,80.7,73.4,72.1,64.6,57.6,82,59,41,30.40,29.92,17,5,17,0.00
2013-7-20,81.5,72.5,63.9,64.9,60.7,55.0,93,68,47,30.17,30.07,9,2,9,0.02
2013-7-21,82.0,70.6,58.6,69.3,61.2,48.7,95,73,57,30.17,30.00,15,4,15,0.15
2013-7-22,89.1,75.8,68.0,72.1,64.9,55.6,92,71,43,30.06,29.88,17,6,17,0.00
2013-7-23,77.0,68.9,60.8,56.5,53.7,50.7,82,60,43,30.23,30.06,17,4,17,0.00
2013-7-24,79.3,68.4,60.4,59.5,55.5,51.4,76,64,47,30.29,30.17,11,2,11,0.00
2013-7-25,81.9,73.6,63.5,67.1,61.1,55.4,84,66,41,30.19,30.10,15,4,65,0.00
2013-7-26,72.0,64.4,57.4,66.2,56.1,46.8,94,75,57,30.29,30.12,22,6,22,0.12
2013-7-27,62.8,57.1,52.2,52.2,48.2,45.3,85,72,55,30.29,30.15,21,5,21,0.01
2013-7-28,73.8,61.3,52.3,54.3,49.8,45.9,84,67,47,30.28,30.17,13,4,13,0.00
2013-7-29,78.3,66.7,52.2,59.0,53.8,51.3,98,67,42,30.34,30.27,14,3,14,0.00
2013-7-30,71.1,67.7,64.0,64.8,62.1,55.6,93,83,61,30.32,30.25,11,2,11,0.01
2013-7-31,80.4,69.6,60.8,68.2,60.0,50.7,99,75,41,30.28,30.18,17,3,17,0.00
2013-8-1,83.3,70.3,55.8,60.6,55.1,51.3,93,62,36,30.25,30.07,12,2,12,0.00
2013-8-2,77.5,68.8,60.1,61.0,54.4,49.6,87,62,40,30.25,30.06,11,3,11,0.00
2013-8-3,79.3,67.0,53.8,56.5,51.7,45.5,94,62,32,30.40,30.24,11,2,11,0.00
2013-8-4,75.7,65.4,53.2,56.8,53.7,50.2,92,67,45,30.44,30.21,12,2,12,0.00
2013-8-5,79.9,68.8,61.0,68.9,63.2,56.3,99,83,64,30.24,29.99,23,3,23,0.48
2013-8-6,85.3,68.9,57.2,68.5,61.8,56.3,98,80,52,30.06,29.89,32,4,34,0.77
2013-8-7,76.3,66.5,59.9,61.2,55.4,46.6,99,71,38,30.24,29.99,15,3,15,0.78
2013-8-8,75.6,65.2,55.2,61.2,57.1,54.0,97,77,53,30.27,30.19,11,2,11,0.00
2013-8-9,76.5,67.7,57.7,61.9,55.2,50.4,99,68,41,30.33,30.21,15,3,15,0.00
2013-8-10,77.0,68.2,61.0,57.7,53.6,46.0,79,61,40,30.40,30.29,8,2,8,0.00
2013-8-11,79.9,70.7,64.8,65.5,61.5,56.7,86,73,57,30.30,30.19,8,2,8,0.00
2013-8-12,80.1,71.0,60.6,64.9,57.3,51.8,95,66,39,30.27,30.19,15,3,15,0.00
2013-8-13,76.5,65.9,55.0,57.6,49.8,40.3,94,60,32,30.40,30.27,11,2,11,0.00
2013-8-14,77.4,65.3,53.8,57.9,52.8,49.1,94,67,40,30.41,30.30,10,2,10,0.00
2013-8-15,79.2,67.3,53.4,61.2,55.7,51.1,93,69,43,30.35,30.27,12,2,12,0.00
2013-8-16,80.6,70.1,58.3,61.7,56.2,51.8,93,64,39,30.39,30.32,15,3,15,0.00
2013-8-17,81.7,70.1,57.6,59.2,55.4,52.2,93,63,37,30.42,30.30,20,4,20,0.00
2013-8-18,82.6,72.3,59.5,60.1,57.2,54.3,88,61,41,30.35,30.20,22,5,22,0.00
2013-8-19,87.1,75.9,68.2,69.3,64.2,58.5,78,67,51,30.23,30.09,17,6,17,0.00
2013-8-20,89.8,80.2,71.1,73.8,69.7,65.3,83,71,55,30.13,30.05,17,5,17,0.00
2013-8-21,86.5,80.0,73.6,75.9,71.4,62.8,89,76,52,30.21,30.04,11,4,11,0.00
2013-8-22,86.9,77.4,68.2,63.3,53.4,48.0,64,45,30,30.35,30.19,13,3,13,0.00
2013-8-23,87.4,75.2,60.3,67.6,58.9,48.0,79,58,42,30.36,30.23,15,4,15,0.00
2013-8-24,90.0,79.9,70.7,72.7,68.9,64.6,82,70,51,30.28,30.13,27,9,27,0.00
2013-8-25,95.4,85.9,78.6,76.1,72.8,70.3,78,66,49,30.21,30.13,23,10,23,0.00
2013-8-26,95.0,86.0,77.9,76.3,74.5,71.8,88,70,51,30.19,30.04,18,6,18,0.00
2013-8-27,94.8,84.9,77.5,78.6,74.7,72.1,85,72,54,30.12,29.99,13,3,13,0.00
2013-8-28,90.9,81.1,71.1,74.8,70.2,61.3,96,72,38,30.21,30.11,11,2,11,0.00
2013-8-29,93.9,83.5,75.2,76.6,72.3,66.0,94,71,42,30.20,30.05,17,5,17,0.01
2013-8-30,83.8,77.4,71.1,73.2,67.4,62.4,90,72,55,30.14,30.01,16,4,16,0.00
2013-8-31,88.7,75.3,65.3,69.6,65.7,62.8,94,74,47,30.10,29.90,21,3,21,0.11
2013-9-1,72.3,68.9,62.1,65.8,60.0,53.2,88,74,63,30.19,29.93,15,5,15,0.12
2013-9-2,68.4,59.5,53.4,54.1,52.1,50.4,94,77,59,30.31,30.19,12,3,12,0.00
2013-9-3,77.7,62.6,48.4,59.4,54.4,48.2,99,77,47,30.31,30.20,10,2,10,0.00
2013-9-4,86.4,72.1,58.1,67.3,61.4,56.8,97,72,45,30.36,30.22,8,2,8,0.00
2013-9-5,83.7,72.6,63.0,66.7,60.2,53.1,82,66,48,30.43,30.30,12,3,12,0.00
2013-9-6,90.7,79.7,70.2,70.3,66.2,61.2,94,67,40,30.30,30.07,21,6,21,0.02
2013-9-7,92.7,80.8,69.6,71.8,67.1,61.3,90,65,41,30.22,30.06,11,3,11,0.00
2013-9-8,76.1,70.5,66.0,65.8,61.5,56.3,83,73,64,30.25,30.09,16,4,16,0.00
2013-9-9,93.2,78.8,69.6,73.9,69.4,65.1,93,75,48,30.10,29.82,17,6,17,0.00
2013-9-10,81.1,74.1,68.5,73.4,66.0,60.4,92,76,57,30.19,29.96,12,3,12,0.01
2013-9-11,84.9,73.4,62.8,64.0,57.6,48.2,93,62,30,30.27,30.19,16,3,16,0.00
2013-9-12,73.4,65.1,56.1,55.6,49.4,43.7,86,59,38,30.44,30.26,19,5,19,0.00
2013-9-13,71.1,59.6,46.8,50.7,45.5,42.6,93,62,38,30.49,30.30,8,2,8,0.00
2013-9-14,71.6,60.1,50.5,56.8,49.4,43.7,98,70,42,30.30,30.10,17,4,17,0.25
2013-9-15,64.8,58.4,51.4,57.6,53.9,45.1,99,86,66,30.53,30.08,16,4,16,0.46
2013-9-16,67.8,55.4,43.5,46.4,43.1,40.6,92,66,39,30.61,30.45,11,3,11,0.00
2013-9-17,68.4,57.6,49.5,58.6,50.5,41.9,99,78,60,30.46,30.15,20,7,23,0.05
2013-9-18,74.1,67.4,59.0,70.2,65.3,58.6,99,93,83,30.16,29.91,16,5,16,0.11
2013-9-19,78.8,71.1,64.9,72.3,66.8,57.2,98,87,68,30.02,29.85,23,4,23,0.20
2013-9-20,65.8,58.7,50.9,56.8,52.2,47.7,92,80,56,30.14,29.99,14,4,15,0.01
2013-9-21,64.6,53.5,45.5,49.5,46.8,44.1,99,80,53,30.21,30.12,10,2,10,0.01
2013-9-22,73.6,60.0,46.0,56.1,51.0,45.0,97,74,52,30.19,30.05,20,6,20,0.00
2013-9-23,74.5,63.9,54.5,54.1,51.6,48.6,82,66,46,30.17,30.07,21,9,21,0.00
2013-9-24,76.8,63.4,53.2,55.2,52.2,49.5,88,69,44,30.19,30.11,15,4,15,0.00
2013-9-25,75.7,62.7,50.5,56.1,52.4,50.0,99,72,43,30.19,30.08,15,4,16,0.00
2013-9-26,82.4,68.9,56.3,62.1,56.4,51.4,84,66,44,30.14,30.02,27,9,27,0.00
2013-9-27,85.5,74.4,66.9,64.4,61.2,59.5,80,65,44,30.14,30.00,30,10,30,0.00
2013-9-28,73.6,61.6,49.3,64.6,55.0,46.2,96,80,63,30.15,29.84,21,7,21,0.18
2013-9-29,77.4,61.5,45.9,49.1,45.0,40.5,91,59,27,30.17,29.99,19,6,19,0.00
2013-9-30,80.6,68.9,60.3,53.1,49.6,45.3,64,51,36,30.01,29.80,27,10,27,0.00
2013-10-1,77.5,67.4,50.9,53.4,44.1,31.8,71,46,20,30.20,29.80,19,5,22,0.00
2013-10-2,76.8,59.9,44.6,56.5,44.3,32.9,98,64,24,30.26,30.01,21,4,21,0.84
2013-10-3,59.7,57.8,55.2,58.5,56.9,54.1,99,97,92,30.14,30.01,15,2,17,0.92
2013-10-4,58.5,56.5,54.5,57.0,54.9,53.6,99,95,89,30.19,30.04,13,4,13,0.11
2013-10-5,60.8,54.9,42.8,59.5,52.0,42.3,99,91,65,30.11,29.94,23,3,25,0.20
2013-10-6,53.1,46.2,39.2,52.0,45.8,39.0,99,98,94,30.06,29.89,13,2,13,0.11
2013-10-7,68.4,52.7,40.5,53.1,43.9,38.7,99,77,34,30.19,30.03,9,2,9,0.02
2013-10-8,77.9,63.5,50.0,49.8,45.2,42.3,81,55,30,30.19,30.02,24,8,24,0.00
2013-10-9,77.5,66.9,59.4,52.9,49.7,47.3,69,55,39,30.25,30.13,21,8,21,0.00
2013-10-10,78.6,63.9,52.3,55.6,49.5,46.0,81,62,37,32.02,30.08,20,6,20,0.00
2013-10-11,74.3,66.1,56.8,62.2,54.5,51.1,91,67,49,30.10,29.83,31,11,31,0.05
2013-10-12,60.1,51.3,44.2,57.2,43.8,39.7,90,76,61,30.36,29.90,23,7,23,0.06
2013-10-13,62.4,48.3,35.6,43.7,37.3,32.2,98,70,34,30.63,30.40,12,1,12,0.00
2013-10-14,54.3,48.2,38.5,48.0,40.6,37.6,98,76,56,30.61,30.16,17,3,17,0.34
2013-10-15,53.2,49.5,45.5,52.7,49.2,44.8,99,99,96,30.18,29.88,19,6,19,1.17
2013-10-16,56.8,45.8,38.5,44.8,40.6,36.7,98,84,50,30.16,30.02,52,4,52,0.06
2013-10-17,60.4,46.5,37.9,46.4,40.2,36.3,99,81,47,30.09,29.97,11,3,11,0.17
2013-10-18,54.0,44.1,37.2,42.4,35.5,27.9,99,75,38,30.18,30.04,15,4,15,0.22
2013-10-19,48.2,39.3,33.1,41.2,35.4,30.4,96,86,67,30.04,29.88,15,3,15,0.07
2013-10-20,45.0,36.7,30.6,40.8,34.0,28.9,98,90,79,30.08,29.81,13,4,13,0.08
2013-10-21,39.6,34.4,29.1,33.3,22.4,18.3,83,62,48,30.16,30.07,17,4,17,0.01
2013-10-22,39.9,33.0,24.3,31.6,26.8,20.7,93,78,64,30.23,30.14,11,2,11,0.00
2013-10-23,37.6,34.5,32.9,31.6,24.0,17.1,88,66,50,30.30,30.19,12,3,12,0.00
2013-10-24,43.7,37.4,32.5,31.1,26.0,18.9,78,63,52,30.51,30.30,15,3,15,0.00
2013-10-25,58.5,44.5,27.9,42.1,33.3,23.7,88,66,50,30.51,29.97,27,7,27,0.00
2013-10-26,51.8,43.1,36.0,42.1,30.1,26.8,72,60,48,30.30,29.98,21,5,21,0.00
2013-10-27,59.2,43.3,30.6,34.5,29.8,25.3,81,61,38,30.34,30.00,18,5,18,0.00
2013-10-28,44.1,37.8,32.0,30.7,23.1,17.6,76,57,39,30.63,30.33,16,4,16,0.00
2013-10-29,40.6,37.2,30.7,37.2,27.9,20.1,93,69,58,30.61,30.28,11,2,11,0.04
2013-10-30,49.5,44.5,39.0,49.3,44.1,37.4,99,98,93,30.29,29.87,10,2,10,0.09
2013-10-31,49.5,42.9,39.7,49.3,42.2,37.9,99,97,91,29.88,29.61,13,3,13,0.05
2013-11-1,52.9,43.5,36.5,39.6,36.4,29.8,96,77,54,30.06,29.62,13,-44,13,0.00
2013-11-2,50.9,40.0,32.4,36.3,30.2,27.5,85,69,42,30.29,30.05,11,2,18,0.00
2013-11-3,55.2,44.9,32.5,35.2,31.6,27.0,86,61,40,30.31,30.08,36,11,36,0.01
2013-11-4,48.9,44.2,34.9,45.9,36.9,31.5,95,76,58,30.35,30.04,27,7,27,0.18
2013-11-5,44.8,35.7,28.9,37.4,29.5,25.3,95,80,48,30.43,30.21,15,2,17,0.01
2013-11-6,40.8,33.9,29.8,30.7,26.4,21.9,94,75,54,30.36,30.21,14,3,14,0.17
2013-11-7,35.8,28.9,23.7,28.9,23.7,19.0,90,81,72,30.43,30.35,15,3,15,0.00
2013-11-8,45.9,35.6,23.4,38.1,26.5,19.2,89,71,49,30.39,29.80,25,7,25,0.01
2013-11-9,45.0,40.9,35.6,38.7,31.0,23.4,82,68,54,30.40,29.82,30,9,30,0.01
2013-11-10,42.4,37.6,30.2,30.2,27.0,22.1,73,66,55,30.52,30.28,18,5,60,0.00
2013-11-11,38.3,24.3,15.3,30.0,8.0,1.0,74,50,35,30.91,30.31,25,9,62,0.00
2013-11-12,29.1,19.8,11.3,10.0,3.6,-0.4,63,50,29,30.96,30.63,16,5,16,0.00
2013-11-13,51.3,37.5,22.5,33.4,21.3,7.9,65,52,43,30.63,30.07,25,9,25,0.00
2013-11-14,53.2,41.3,34.7,37.8,31.3,26.1,77,68,53,30.08,29.94,11,4,11,0.00
2013-11-15,56.8,43.8,32.2,40.1,33.5,27.3,85,68,45,30.05,29.84,21,6,21,0.00
2013-11-16,49.3,44.8,41.5,48.2,41.2,33.4,96,88,65,29.85,29.44,19,6,19,0.11
2013-11-17,44.2,39.5,31.6,42.1,34.0,21.6,95,81,66,30.03,29.51,27,7,27,0.01
2013-11-18,36.0,29.9,24.3,23.0,17.6,14.4,70,60,44,30.45,30.03,20,6,27,0.01
2013-11-19,46.9,35.8,23.9,29.1,22.8,15.1,73,60,43,30.45,30.12,31,11,31,0.00
2013-11-20,45.0,41.4,37.2,33.4,28.1,23.2,85,60,45,30.23,30.08,22,9,22,0.00
2013-11-21,37.9,30.7,23.9,35.4,24.0,10.4,92,76,56,30.70,30.23,21,6,21,0.00
2013-11-22,34.2,22.9,12.0,11.1,4.9,-4.4,64,48,23,30.82,30.63,23,7,23,0.00
2013-11-23,18.1,11.3,5.9,-2.2,-6.8,-14.3,58,44,24,31.02,30.82,18,2,18,0.00
2013-11-24,31.1,19.7,7.2,10.2,2.4,-7.1,59,47,36,30.89,30.17,32,11,32,0.00
2013-11-25,38.3,33.1,27.3,26.4,19.6,10.2,71,58,48,30.28,30.09,29,9,29,0.00
2013-11-26,29.7,20.2,13.5,16.9,0.7,-6.5,60,42,32,30.57,30.27,23,9,23,0.00
2013-11-27,23.9,17.5,7.9,5.5,1.3,-3.1,64,49,40,30.57,30.25,16,5,16,0.00
2013-11-28,27.7,21.8,12.7,8.4,5.8,1.6,61,50,38,30.69,30.25,14,3,14,0.00
2013-11-29,32.9,23.1,10.9,18.5,10.4,1.2,68,58,45,30.69,30.32,19,6,19,0.00
2013-11-30,41.4,32.3,24.6,26.6,20.8,15.3,77,62,52,30.36,30.21,9,2,9,0.00
2013-12-1,34.2,28.3,19.9,23.2,19.0,13.8,77,68,59,30.38,30.11,7,2,7,0.00
2013-12-2,36.9,32.4,28.6,31.6,26.8,21.0,89,80,69,30.11,29.78,19,7,19,0.11
2013-12-3,34.9,33.8,31.3,31.8,30.9,28.6,91,89,88,29.99,29.78,10,3,10,0.20
2013-12-4,31.3,27.0,13.6,28.8,23.0,4.6,90,85,65,29.98,29.67,0,0,0,0.01
2013-12-5,13.3,6.0,-0.6,4.5,-7.2,-14.6,67,54,43,30.52,29.90,0,0,0,0.00
2013-12-6,5.2,-1.8,-8.0,-11.6,-16.2,-23.3,55,49,43,30.82,30.52,0,0,0,0.00
2013-12-7,2.1,-5.2,-12.8,-16.6,-21.1,-26.1,53,45,33,30.90,30.74,0,0,0,0.00
2013-12-8,11.8,6.0,-3.3,2.3,-5.0,-17.1,69,60,49,30.75,30.21,0,0,0,0.00
2013-12-9,10.2,0.6,-3.8,1.0,-13.2,-20.2,66,52,38,30.30,30.05,0,0,0,0.00
2013-12-10,11.8,6.4,1.4,3.0,-7.2,-12.8,71,53,41,30.46,29.95,17,3,17,0.00
2013-12-11,3.9,-3.1,-8.7,-11.4,-20.3,-25.4,51,43,31,30.74,30.46,15,6,15,0.00
2013-12-12,20.5,12.1,-0.2,4.8,-1.6,-15.7,63,54,42,30.49,30.32,12,3,12,0.00
2013-12-13,16.9,13.4,10.2,5.2,1.2,-0.9,64,58,51,30.47,30.30,17,6,17,0.00
2013-12-14,18.0,9.2,-0.6,3.4,-2.9,-15.0,64,57,49,30.47,30.27,16,4,28,0.00
2013-12-15,5.7,0.3,-2.4,-13.7,-17.6,-21.8,50,42,32,30.35,30.28,12,4,12,0.00
2013-12-16,20.7,9.1,0.1,14.0,-3.0,-19.5,76,58,38,30.31,30.09,15,6,15,0.00
2013-12-17,32.7,23.2,8.6,25.3,11.3,-2.7,78,60,47,30.30,30.06,22,7,22,0.00
2013-12-18,37.9,24.4,8.2,24.3,13.5,-2.7,72,63,51,30.26,29.83,18,5,18,0.00
2013-12-19,27.9,17.9,15.4,17.6,6.4,1.4,69,60,50,30.27,29.99,16,6,16,0.00
2013-12-20,18.1,16.0,12.7,7.7,6.3,4.8,71,65,59,30.22,30.04,13,3,13,0.00
2013-12-21,21.9,18.3,15.1,10.9,7.9,5.4,67,63,59,30.19,30.04,11,3,11,0.00
2013-12-22,20.3,13.9,3.6,9.0,3.7,-6.9,68,63,56,30.43,30.14,14,5,14,0.00
2013-12-23,3.6,-1.4,-6.0,-6.9,-16.3,-21.3,62,48,40,30.69,30.41,13,5,14,0.00
2013-12-24,10.0,-0.7,-13.2,-1.1,-15.4,-27.8,65,49,35,30.67,30.31,17,6,17,0.00
2013-12-25,28.6,16.2,8.2,20.8,6.3,-1.1,76,65,51,30.33,30.22,14,4,14,0.00
2013-12-26,25.9,19.4,11.5,16.9,10.6,3.0,74,68,60,30.36,30.25,8,2,8,0.00
2013-12-27,41.4,29.1,14.4,28.6,21.0,7.0,84,72,58,30.35,30.08,23,5,23,0.02
2013-12-28,49.8,32.3,18.3,31.1,23.9,9.9,87,73,43,30.19,29.82,25,5,25,0.01
2013-12-29,30.4,-0.7,-11.9,9.7,-19.3,-31.9,69,41,26,30.51,30.03,23,8,23,0.00
2013-12-30,0.7,-5.0,-12.5,-11.7,-19.1,-29.7,55,49,40,30.48,30.35,10,3,15,0.00
2013-12-31,-1.1,-5.9,-9.4,-14.3,-20.7,-26.1,57,48,40,30.59,30.37,10,3,10,0.00
2014-1-1,0.5,-3.9,-8.9,-17.1,-21.0,-27.2,46,43,39,30.66,30.57,10,4,11,0.00
2014-1-2,4.3,-3.8,-11.4,-18.6,-24.1,-29.0,45,37,22,30.68,30.54,9,3,9,0.00